Location: Errabaliem
(16.8108°N, 80.4255°E)
Time: 15:13:33
(UTC+00:00)

SJ-6B - Pass Details

Date: 05 August 2024
Orbit: 483 x 543 km, 97.4° (Epoch: 12 September)

Event Time Altitude Azimuth Distance (km) Brightness Sun altitude
Exits shadow 13:37:42 - 141° (SE) 2,187 5.4 -7.4°
Reaches altitude 10° 13:38:44 10° 134° (SE) 1,808 4.9 -7.6°
Maximum altitude 13:42:03 27° 76° (ENE) 1,074 3.9 -8.4°
Drops below altitude 10° 13:45:24 10° 18° (NNE) 1,819 5.5 -9.1°
Sets 13:47:45 0° 6° (N) 2,713 6.6 -9.6°
